,,,PA_Meas_PMT16A,,PR_Meas_QMR101_102,,RH_Meas_QMH101,,SR_Meas_QMS101,,TA_Meas_QMH101,,GenWind,,GenWind,
date,time,status,PA,status,PR,status,RH,status,SR,status,TA,status,DirAvg,status,SpdAvg,
2009-10-05, 00:00:04,VALID,1004.6,VALID,0,VALID,92.3781,VALID,0,VALID,24.9866,VALID,77,VALID,0,
2009-10-05, 00:01:04,VALID,1004.59,VALID,0,VALID,92.3552,VALID,0,VALID,25.0098,VALID,77,VALID,0.182031,
2009-10-05, 00:02:04,VALID,1004.59,VALID,0,VALID,92.3934,VALID,0,VALID,24.9282,VALID,77,VALID,0.427734,
2009-10-05, 00:03:04,VALID,1004.63,VALID,0,VALID,92.5383,VALID,0,VALID,24.969,VALID,77,VALID,0.339063,
2009-10-05, 00:04:04,VALID,1004.65,VALID,0,VALID,92.6146,VALID,0,VALID,24.9282,VALID,77,VALID,0.071875,
2009-10-05, 00:05:04,VALID,1004.65,VALID,0,VALID,92.6604,VALID,0,VALID,24.9282,VALID,77,VALID,0.194531,
2009-10-05, 00:06:04,VALID,1004.65,VALID,0,VALID,92.6985,VALID,0,VALID,24.9495,VALID,77,VALID,0,
2009-10-05, 00:07:04,VALID,1004.64,VALID,0,VALID,92.7062,VALID,0,VALID,24.9282,VALID,77,VALID,0,
2009-10-05, 00:08:04,VALID,1004.66,VALID,0,VALID,92.6833,VALID,0,VALID,24.969,VALID,77,VALID,0.483203,
2009-10-05, 00:09:04,VALID,1004.64,VALID,0,VALID,92.668,VALID,0,VALID,24.9495,VALID,77,VALID,0.0679687,
2009-10-05, 00:10:04,VALID,1004.63,VALID,0,VALID,92.7367,VALID,0,VALID,24.9282,VALID,77,VALID,0,
2009-10-05, 00:11:04,VALID,1004.61,VALID,0,VALID,92.7824,VALID,0.100563,VALID,24.9495,VALID,77,VALID,0.396094,
2009-10-05, 00:12:04,VALID,1004.61,VALID,0,VALID,92.7443,VALID,0,VALID,24.9282,VALID,77,VALID,0.263672,
2009-10-05, 00:13:04,VALID,1004.6,VALID,0,VALID,92.7901,VALID,0,VALID,24.8892,VALID,77,VALID,0.136328,
2009-10-05, 00:14:04,VALID,1004.63,VALID,0,VALID,92.874,VALID,0,VALID,24.9106,VALID,77,VALID,0.286719,
2009-10-05, 00:15:04,VALID,1004.57,VALID,0,VALID,92.9198,VALID,0,VALID,24.9106,VALID,77,VALID,0.284375,
2009-10-05, 00:16:04,VALID,1004.6,VALID,0,VALID,93.0189,VALID,0,VALID,24.9087,VALID,77,VALID,0.405469,
2009-10-05, 00:17:04,VALID,1004.58,VALID,0,VALID,93.0952,VALID,0,VALID,24.9106,VALID,77,VALID,0.238281,
2009-10-05, 00:18:04,VALID,1004.55,VALID,0,VALID,93.2097,VALID,0,VALID,24.9087,VALID,77,VALID,0.14375,
2009-10-05, 00:19:04,VALID,1004.57,VALID,0,VALID,93.2707,VALID,0,VALID,24.9087,VALID,77,VALID,0.10625,
2009-10-05, 00:20:04,VALID,1004.55,VALID,0,VALID,93.3012,VALID,0,VALID,24.93,VALID,77,VALID,0,
2009-10-05, 00:21:04,VALID,1004.58,VALID,0,VALID,93.3241,VALID,0,VALID,24.93,VALID,77,VALID,0,
2009-10-05, 00:22:04,VALID,1004.57,VALID,0,VALID,93.2859,VALID,0,VALID,24.9106,VALID,77,VALID,0,
2009-10-05, 00:23:04,VALID,1004.55,VALID,0,VALID,93.2859,VALID,0,VALID,24.8697,VALID,77,VALID,0,
2009-10-05, 00:24:04,VALID,1004.57,VALID,0,VALID,93.3012,VALID,0,VALID,24.8716,VALID,77,VALID,0,
2009-10-05, 00:25:04,VALID,1004.6,VALID,0,VALID,93.3851,VALID,0.100563,VALID,24.8697,VALID,77,VALID,0.281641,
2009-10-05, 00:26:04,VALID,1004.58,VALID,0,VALID,93.3165,VALID,0,VALID,24.8308,VALID,77,VALID,0.398438,
2009-10-05, 00:27:04,VALID,1004.58,VALID,0,VALID,93.2631,VALID,0,VALID,24.8327,VALID,77,VALID,0.473047,
2009-10-05, 00:28:04,VALID,1004.59,VALID,0,VALID,93.2478,VALID,0,VALID,24.7956,VALID,62,VALID,0.538672,
2009-10-05, 00:29:04,VALID,1004.59,VALID,0,VALID,93.2554,VALID,0,VALID,24.7548,VALID,49,VALID,0.525781,
2009-10-05, 00:30:04,VALID,1004.56,VALID,0,VALID,93.3241,VALID,0,VALID,24.7353,VALID,49,VALID,0.490625,
2009-10-05, 00:31:04,VALID,1004.57,VALID,0,VALID,93.4233,VALID,0,VALID,24.7761,VALID,49,VALID,0.480469,
2009-10-05, 00:32:04,VALID,1004.57,VALID,0,VALID,93.4996,VALID,0,VALID,24.7548,VALID,49,VALID,0.0285156,
2009-10-05, 00:33:04,VALID,1004.54,VALID,0,VALID,93.5224,VALID,0,VALID,24.7548,VALID,49,VALID,0,
2009-10-05, 00:34:04,VALID,1004.53,VALID,0,VALID,93.5301,VALID,0,VALID,24.7761,VALID,49,VALID,0,
2009-10-05, 00:35:04,VALID,1004.49,VALID,0,VALID,93.5148,VALID,0,VALID,24.7548,VALID,49,VALID,0,
2009-10-05, 00:36:04,VALID,1004.52,VALID,0,VALID,93.553,VALID,0,VALID,24.7956,VALID,50,VALID,0,
2009-10-05, 00:37:04,VALID,1004.49,VALID,0,VALID,93.5301,VALID,0,VALID,24.8151,VALID,47,VALID,0.674609,
2009-10-05, 00:38:04,VALID,1004.49,VALID,0,VALID,93.5682,VALID,0,VALID,24.8346,VALID,45,VALID,0.231641,
2009-10-05, 00:39:04,VALID,1004.48,VALID,0,VALID,93.5606,VALID,0,VALID,24.8327,VALID,45,VALID,0.25625,
2009-10-05, 00:40:04,VALID,1004.46,VALID,0,VALID,93.5453,VALID,0,VALID,24.8735,VALID,45,VALID,0.233594,
2009-10-05, 00:41:04,VALID,1004.41,VALID,0,VALID,93.4614,VALID,0,VALID,24.8327,VALID,45,VALID,0.260938,
2009-10-05, 00:42:04,VALID,1004.38,VALID,0,VALID,93.4462,VALID,0,VALID,24.8716,VALID,45,VALID,0.403906,
2009-10-05, 00:43:04,VALID,1004.4,VALID,0,VALID,93.4004,VALID,0,VALID,24.893,VALID,45,VALID,0.169922,
2009-10-05, 00:44:04,VALID,1004.37,VALID,0,VALID,93.3851,VALID,0,VALID,24.8716,VALID,45,VALID,0.150391,
2009-10-05, 00:45:04,VALID,1004.34,VALID,0,VALID,93.408,VALID,0,VALID,24.8911,VALID,45,VALID,0.203516,
2009-10-05, 00:46:04,VALID,1004.33,VALID,0,VALID,93.3317,VALID,0,VALID,24.8716,VALID,45,VALID,0.123828,
2009-10-05, 00:47:04,VALID,1004.34,VALID,0,VALID,93.2631,VALID,0,VALID,24.9125,VALID,45,VALID,0.403516,
2009-10-05, 00:48:04,VALID,1004.3,VALID,0,VALID,93.2707,VALID,0,VALID,24.8716,VALID,45,VALID,0.378516,
2009-10-05, 00:49:04,VALID,1004.28,VALID,0,VALID,93.2554,VALID,0,VALID,24.8911,VALID,30,VALID,0.428906,
2009-10-05, 00:50:04,VALID,1004.26,VALID,0,VALID,93.2783,VALID,0,VALID,24.9125,VALID,30,VALID,0.347656,
2009-10-05, 00:51:04,VALID,1004.25,VALID,0,VALID,93.3241,VALID,0,VALID,24.9125,VALID,30,VALID,0.242188,
2009-10-05, 00:52:04,VALID,1004.26,VALID,0,VALID,93.3928,VALID,0,VALID,24.8911,VALID,30,VALID,0,
2009-10-05, 00:53:04,VALID,1004.2,VALID,0,VALID,93.4004,VALID,0,VALID,24.8911,VALID,30,VALID,0.114453,
2009-10-05, 00:54:04,VALID,1004.2,VALID,0,VALID,93.4309,VALID,0,VALID,24.8911,VALID,30,VALID,0.00664063,
2009-10-05, 00:55:04,VALID,1004.18,VALID,0,VALID,93.4614,VALID,0,VALID,24.9319,VALID,30,VALID,0.289063,
2009-10-05, 00:56:04,VALID,1004.19,VALID,0,VALID,93.4614,VALID,0,VALID,24.8911,VALID,30,VALID,0,
2009-10-05, 00:57:04,VALID,1004.14,VALID,0,VALID,93.469,VALID,0,VALID,24.9125,VALID,30,VALID,0.00078125,
2009-10-05, 00:58:04,VALID,1004.16,VALID,0,VALID,93.4385,VALID,0.100563,VALID,24.8679,VALID,30,VALID,0.306641,
2009-10-05, 00:59:04,VALID,1004.15,VALID,0,VALID,93.4385,VALID,0,VALID,24.8095,VALID,30,VALID,0.542969,
2009-10-05, 01:00:04,VALID,1004.15,VALID,0,VALID,93.4614,VALID,0.100563,VALID,24.8308,VALID,30,VALID,0.296484,
2009-10-05, 01:01:04,VALID,1004.17,VALID,0,VALID,93.5682,VALID,0.100563,VALID,24.8308,VALID,30,VALID,0.182422,
2009-10-05, 01:02:04,VALID,1004.17,VALID,0,VALID,93.6216,VALID,0,VALID,24.8308,VALID,30,VALID,0.262891,
2009-10-05, 01:03:04,VALID,1004.18,VALID,0,VALID,93.6445,VALID,0,VALID,24.8308,VALID,30,VALID,0.188672,
2009-10-05, 01:04:04,VALID,1004.18,VALID,0,VALID,93.675,VALID,0,VALID,24.8113,VALID,30,VALID,0.239844,
2009-10-05, 01:05:04,VALID,1004.16,VALID,0,VALID,93.7589,VALID,0.100563,VALID,24.8308,VALID,30,VALID,0.296094,
2009-10-05, 01:06:04,VALID,1004.14,VALID,0,VALID,93.7971,VALID,0,VALID,24.8308,VALID,30,VALID,0.281641,
2009-10-05, 01:07:04,VALID,1004.12,VALID,0,VALID,93.8047,VALID,0.100563,VALID,24.8113,VALID,30,VALID,0.224609,
2009-10-05, 01:08:04,VALID,1004.11,VALID,0,VALID,93.7818,VALID,0,VALID,24.79,VALID,30,VALID,0.420312,
2009-10-05, 01:09:04,VALID,1004.16,VALID,0,VALID,93.7895,VALID,0.100563,VALID,24.8113,VALID,30,VALID,0.463672,
2009-10-05, 01:10:04,VALID,1004.14,VALID,0,VALID,93.7971,VALID,0,VALID,24.7919,VALID,30,VALID,0.448828,
2009-10-05, 01:11:04,VALID,1004.13,VALID,0,VALID,93.7895,VALID,0.100563,VALID,24.7529,VALID,27,VALID,0.439453,
2009-10-05, 01:12:04,VALID,1004.15,VALID,0,VALID,93.8123,VALID,0.100563,VALID,24.7529,VALID,14,VALID,0.468359,
2009-10-05, 01:13:04,VALID,1004.16,VALID,0,VALID,93.8123,VALID,0,VALID,24.714,VALID,12,VALID,0.485156,
2009-10-05, 01:14:04,VALID,1004.13,VALID,0,VALID,93.881,VALID,0,VALID,24.7353,VALID,4,VALID,0.548437,
2009-10-05, 01:15:04,VALID,1004.14,VALID,0,VALID,93.9497,VALID,0,VALID,24.7548,VALID,4,VALID,0.579297,
2009-10-05, 01:16:04,VALID,1004.13,VALID,0,VALID,94.0031,VALID,0,VALID,24.7353,VALID,2,VALID,0.611719,
2009-10-05, 01:17:04,VALID,1004.09,VALID,0,VALID,94.0259,VALID,0,VALID,24.7548,VALID,2,VALID,0.702734,
2009-10-05, 01:18:04,VALID,1004.12,VALID,0,VALID,94.0488,VALID,0,VALID,24.7353,VALID,2,VALID,0.583984,
2009-10-05, 01:19:04,VALID,1004.11,VALID,0,VALID,94.0565,VALID,0,VALID,24.7353,VALID,2,VALID,0.570703,
2009-10-05, 01:20:04,VALID,1004.12,VALID,0,VALID,94.0717,VALID,0,VALID,24.6945,VALID,2,VALID,0.501562,
2009-10-05, 01:21:04,VALID,1004.13,VALID,0,VALID,94.0641,VALID,0,VALID,24.6964,VALID,2,VALID,0.523438,
2009-10-05, 01:22:04,VALID,1004.13,VALID,0,VALID,94.087,VALID,0,VALID,24.6964,VALID,359,VALID,0.515625,
2009-10-05, 01:23:04,VALID,1004.11,VALID,0,VALID,94.1251,VALID,0,VALID,24.7159,VALID,359,VALID,0.430859,
2009-10-05, 01:24:04,VALID,1004.12,VALID,0,VALID,94.1785,VALID,0,VALID,24.7353,VALID,359,VALID,0.417188,
2009-10-05, 01:25:04,VALID,1004.1,VALID,0,VALID,94.2319,VALID,0,VALID,24.7335,VALID,357,VALID,0.320703,
2009-10-05, 01:26:04,VALID,1004.15,VALID,0,VALID,94.2777,VALID,0,VALID,24.7335,VALID,357,VALID,0.0449219,
2009-10-05, 01:27:04,VALID,1004.11,VALID,0,VALID,94.2701,VALID,0,VALID,24.7743,VALID,357,VALID,0,
2009-10-05, 01:28:04,VALID,1004.11,VALID,0,VALID,94.3158,VALID,0,VALID,24.7937,VALID,357,VALID,0.158594,
2009-10-05, 01:29:04,VALID,1004.1,VALID,0,VALID,94.3082,VALID,0,VALID,24.8327,VALID,357,VALID,0.276953,
2009-10-05, 01:30:04,VALID,1004.09,VALID,0,VALID,94.3006,VALID,0,VALID,24.8327,VALID,357,VALID,0.227344,
2009-10-05, 01:31:04,VALID,1004.08,VALID,0,VALID,94.2777,VALID,0,VALID,24.8522,VALID,357,VALID,0.261719,
2009-10-05, 01:32:04,VALID,1004.06,VALID,0,VALID,94.2548,VALID,0,VALID,24.8327,VALID,357,VALID,0.25,
2009-10-05, 01:33:04,VALID,1004.05,VALID,0,VALID,94.2167,VALID,0,VALID,24.8327,VALID,357,VALID,0.239453,
2009-10-05, 01:34:04,VALID,1004.06,VALID,0,VALID,94.2014,VALID,0,VALID,24.8522,VALID,357,VALID,0.307813,
2009-10-05, 01:35:04,VALID,1004.06,VALID,0,VALID,94.209,VALID,0,VALID,24.8132,VALID,357,VALID,0.334375,
2009-10-05, 01:36:04,VALID,1004.08,VALID,0,VALID,94.1862,VALID,0,VALID,24.8132,VALID,357,VALID,0.11875,
2009-10-05, 01:37:04,VALID,1004.06,VALID,0,VALID,94.1633,VALID,0,VALID,24.7919,VALID,357,VALID,0,
2009-10-05, 01:38:04,VALID,1004.05,VALID,0,VALID,94.1404,VALID,0,VALID,24.7937,VALID,357,VALID,0.0890625,
2009-10-05, 01:39:04,VALID,1004.09,VALID,0,VALID,94.1633,VALID,0,VALID,24.8132,VALID,357,VALID,0,
2009-10-05, 01:40:04,VALID,1004.1,VALID,0,VALID,94.1709,VALID,0,VALID,24.7919,VALID,357,VALID,0,
2009-10-05, 01:41:04,VALID,1004.11,VALID,0,VALID,94.1556,VALID,0,VALID,24.7937,VALID,357,VALID,0,
2009-10-05, 01:42:04,VALID,1004.09,VALID,0,VALID,94.1633,VALID,0,VALID,24.7937,VALID,357,VALID,0,
2009-10-05, 01:43:04,VALID,1004.08,VALID,0,VALID,94.1862,VALID,0,VALID,24.7743,VALID,357,VALID,0,
2009-10-05, 01:44:04,VALID,1004.08,VALID,0,VALID,94.2014,VALID,0,VALID,24.7937,VALID,357,VALID,0.180469,
2009-10-05, 01:45:04,VALID,1004.08,VALID,0,VALID,94.2014,VALID,0,VALID,24.7724,VALID,357,VALID,0.136328,
2009-10-05, 01:46:04,VALID,1004.05,VALID,0,VALID,94.2167,VALID,0,VALID,24.7919,VALID,357,VALID,0.177344,
2009-10-05, 01:47:04,VALID,1004.05,VALID,0,VALID,94.2472,VALID,0,VALID,24.7724,VALID,357,VALID,0.324219,
2009-10-05, 01:48:04,VALID,1004.05,VALID,0,VALID,94.2472,VALID,0,VALID,24.8132,VALID,357,VALID,0.280078,
2009-10-05, 01:49:04,VALID,1004.08,VALID,0,VALID,94.2853,VALID,0,VALID,24.7919,VALID,357,VALID,0.308594,
2009-10-05, 01:50:04,VALID,1004.05,VALID,0,VALID,94.3082,VALID,0,VALID,24.7919,VALID,357,VALID,0.167969,
2009-10-05, 01:51:04,VALID,1004.05,VALID,0,VALID,94.3235,VALID,0,VALID,24.8132,VALID,357,VALID,0.255859,
2009-10-05, 01:52:04,VALID,1004.03,VALID,0,VALID,94.3082,VALID,0,VALID,24.8132,VALID,357,VALID,0,
2009-10-05, 01:53:04,VALID,1004.03,VALID,0,VALID,94.2853,VALID,0,VALID,24.7937,VALID,357,VALID,0,
2009-10-05, 01:54:04,VALID,1004.04,VALID,0,VALID,94.2777,VALID,0,VALID,24.7743,VALID,357,VALID,0,
2009-10-05, 01:55:04,VALID,1004.05,VALID,0,VALID,94.2624,VALID,0,VALID,24.7548,VALID,357,VALID,0,
2009-10-05, 01:56:04,VALID,1004.05,VALID,0,VALID,94.2548,VALID,0,VALID,24.7548,VALID,357,VALID,0,
2009-10-05, 01:57:04,VALID,1004.03,VALID,0,VALID,94.2853,VALID,0,VALID,24.7548,VALID,357,VALID,0,
2009-10-05, 01:58:04,VALID,1004.04,VALID,0,VALID,94.3311,VALID,0,VALID,24.7743,VALID,357,VALID,0,
2009-10-05, 01:59:04,VALID,1004.06,VALID,0,VALID,94.3464,VALID,0,VALID,24.7724,VALID,357,VALID,0,
2009-10-05, 02:00:04,VALID,1004.03,VALID,0,VALID,94.3616,VALID,0,VALID,24.7743,VALID,357,VALID,0,
2009-10-05, 02:01:04,VALID,1004.05,VALID,0,VALID,94.3921,VALID,0,VALID,24.7743,VALID,357,VALID,0.226172,
2009-10-05, 02:02:04,VALID,1004.07,VALID,0,VALID,94.3921,VALID,0,VALID,24.7743,VALID,357,VALID,0.458203,
2009-10-05, 02:03:04,VALID,1004.08,VALID,0,VALID,94.3998,VALID,0,VALID,24.7743,VALID,357,VALID,0.476953,
2009-10-05, 02:04:04,VALID,1004.11,VALID,0,VALID,94.3998,VALID,0,VALID,24.7529,VALID,357,VALID,0.546484,
2009-10-05, 02:05:04,VALID,1004.11,VALID,0,VALID,94.3998,VALID,0,VALID,24.7353,VALID,357,VALID,0.503516,
2009-10-05, 02:06:04,VALID,1004.12,VALID,0,VALID,94.3921,VALID,0,VALID,24.7159,VALID,357,VALID,0.427734,
2009-10-05, 02:07:04,VALID,1004.12,VALID,0,VALID,94.3769,VALID,0,VALID,24.7159,VALID,357,VALID,0.398438,
2009-10-05, 02:08:04,VALID,1004.11,VALID,0,VALID,94.3845,VALID,0,VALID,24.7159,VALID,357,VALID,0.581641,
2009-10-05, 02:09:04,VALID,1004.1,VALID,0,VALID,94.3998,VALID,0,VALID,24.7159,VALID,357,VALID,0.573438,
2009-10-05, 02:10:04,VALID,1004.11,VALID,0,VALID,94.415,VALID,0,VALID,24.6945,VALID,357,VALID,0.444141,
2009-10-05, 02:11:04,VALID,1004.1,VALID,0,VALID,94.4608,VALID,0,VALID,24.7353,VALID,357,VALID,0.273438,
2009-10-05, 02:12:04,VALID,1004.08,VALID,0,VALID,94.4913,VALID,0,VALID,24.7548,VALID,357,VALID,0.265625,
2009-10-05, 02:13:04,VALID,1004.09,VALID,0,VALID,94.5295,VALID,0,VALID,24.7548,VALID,357,VALID,0.211328,
2009-10-05, 02:14:04,VALID,1004.07,VALID,0,VALID,94.56,VALID,0,VALID,24.7548,VALID,357,VALID,0.0140625,
2009-10-05, 02:15:04,VALID,1004.08,VALID,0,VALID,94.5295,VALID,0,VALID,24.7548,VALID,357,VALID,0,
2009-10-05, 02:16:04,VALID,1004.1,VALID,0,VALID,94.4989,VALID,0,VALID,24.7353,VALID,357,VALID,0,
2009-10-05, 02:17:04,VALID,1004.11,VALID,0,VALID,94.5142,VALID,0,VALID,24.7548,VALID,357,VALID,0,
2009-10-05, 02:18:04,VALID,1004.09,VALID,0,VALID,94.5142,VALID,0,VALID,24.7335,VALID,357,VALID,0,
2009-10-05, 02:19:04,VALID,1004.08,VALID,0,VALID,94.5371,VALID,0,VALID,24.7353,VALID,357,VALID,0,
2009-10-05, 02:20:04,VALID,1004.09,VALID,0,VALID,94.5295,VALID,0,VALID,24.714,VALID,357,VALID,0,
2009-10-05, 02:21:04,VALID,1004.06,VALID,0,VALID,94.5371,VALID,0,VALID,24.7567,VALID,357,VALID,0,
2009-10-05, 02:22:04,VALID,1004.09,VALID,0,VALID,94.5295,VALID,0,VALID,24.7353,VALID,357,VALID,0,
2009-10-05, 02:23:04,VALID,1004.11,VALID,0,VALID,94.5371,VALID,0,VALID,24.7567,VALID,357,VALID,0,
2009-10-05, 02:24:04,VALID,1004.13,VALID,0,VALID,94.5523,VALID,0,VALID,24.7353,VALID,357,VALID,0,
2009-10-05, 02:25:04,VALID,1004.12,VALID,0,VALID,94.5752,VALID,0,VALID,24.7159,VALID,357,VALID,0.0589844,
2009-10-05, 02:26:04,VALID,1004.1,VALID,0,VALID,94.5829,VALID,0,VALID,24.7353,VALID,357,VALID,0,
2009-10-05, 02:27:04,VALID,1004.12,VALID,0,VALID,94.5905,VALID,0,VALID,24.7353,VALID,357,VALID,0.323828,
2009-10-05, 02:28:04,VALID,1004.1,VALID,0,VALID,94.56,VALID,0,VALID,24.7567,VALID,357,VALID,0.306641,
2009-10-05, 02:29:04,VALID,1004.11,VALID,0,VALID,94.5829,VALID,0,VALID,24.7159,VALID,357,VALID,0.340625,
2009-10-05, 02:30:04,VALID,1004.08,VALID,0,VALID,94.5523,VALID,0,VALID,24.7159,VALID,357,VALID,0.28125,
2009-10-05, 02:31:04,VALID,1004.05,VALID,0,VALID,94.5523,VALID,0,VALID,24.7159,VALID,357,VALID,0.176953,
2009-10-05, 02:32:04,VALID,1004.02,VALID,0,VALID,94.5523,VALID,0,VALID,24.6945,VALID,357,VALID,0.237891,
2009-10-05, 02:33:04,VALID,1004.04,VALID,0,VALID,94.5371,VALID,0,VALID,24.7159,VALID,357,VALID,0.123828,
2009-10-05, 02:34:04,VALID,1004,VALID,0,VALID,94.5371,VALID,0,VALID,24.7159,VALID,357,VALID,0.0164062,
2009-10-05, 02:35:04,VALID,1004,VALID,0,VALID,94.5523,VALID,0,VALID,24.7159,VALID,357,VALID,0,
2009-10-05, 02:36:04,VALID,1003.97,VALID,0,VALID,94.5371,VALID,0,VALID,24.7353,VALID,357,VALID,0,
2009-10-05, 02:37:04,VALID,1004.02,VALID,0,VALID,94.5676,VALID,0,VALID,24.7353,VALID,357,VALID,0,
2009-10-05, 02:38:04,VALID,1004.02,VALID,0,VALID,94.5676,VALID,0,VALID,24.7548,VALID,357,VALID,0,
2009-10-05, 02:39:04,VALID,1004.04,VALID,0,VALID,94.5905,VALID,0,VALID,24.7743,VALID,357,VALID,0,
2009-10-05, 02:40:04,VALID,1004.06,VALID,0,VALID,94.5905,VALID,0,VALID,24.7743,VALID,357,VALID,0.299609,
2009-10-05, 02:41:04,VALID,1004.09,VALID,0,VALID,94.5905,VALID,0,VALID,24.7956,VALID,357,VALID,0.4875,
2009-10-05, 02:42:04,VALID,1004.09,VALID,0,VALID,94.5752,VALID,0,VALID,24.7743,VALID,357,VALID,0.414844,
2009-10-05, 02:43:04,VALID,1004.13,VALID,0,VALID,94.5523,VALID,0,VALID,24.7548,VALID,357,VALID,0.496875,
2009-10-05, 02:44:04,VALID,1004.12,VALID,0,VALID,94.5218,VALID,0,VALID,24.7548,VALID,357,VALID,0.407422,
2009-10-05, 02:45:04,VALID,1004.14,VALID,0,VALID,94.5066,VALID,0,VALID,24.6945,VALID,357,VALID,0.192578,
2009-10-05, 02:46:04,VALID,1004.14,VALID,0,VALID,94.5142,VALID,0,VALID,24.7353,VALID,357,VALID,0.1375,
2009-10-05, 02:47:04,VALID,1004.13,VALID,0,VALID,94.5295,VALID,0,VALID,24.7548,VALID,357,VALID,0.119141,
2009-10-05, 02:48:04,VALID,1004.17,VALID,0,VALID,94.5523,VALID,0,VALID,24.7548,VALID,357,VALID,0,
2009-10-05, 02:49:04,VALID,1004.16,VALID,0,VALID,94.56,VALID,0,VALID,24.7743,VALID,357,VALID,0.155078,
2009-10-05, 02:50:04,VALID,1004.19,VALID,0,VALID,94.56,VALID,0,VALID,24.7937,VALID,357,VALID,0.303906,
2009-10-05, 02:51:04,VALID,1004.17,VALID,0,VALID,94.5523,VALID,0,VALID,24.7937,VALID,357,VALID,0.364062,
2009-10-05, 02:52:04,VALID,1004.18,VALID,0,VALID,94.56,VALID,0,VALID,24.7937,VALID,357,VALID,0.186328,
2009-10-05, 02:53:04,VALID,1004.17,VALID,0,VALID,94.56,VALID,0,VALID,24.7937,VALID,357,VALID,0.322266,
2009-10-05, 02:54:04,VALID,1004.19,VALID,0,VALID,94.5066,VALID,0,VALID,24.7724,VALID,357,VALID,0.0578125,
2009-10-05, 02:55:04,VALID,1004.18,VALID,0,VALID,94.5371,VALID,0,VALID,24.7743,VALID,357,VALID,0.256641,
2009-10-05, 02:56:04,VALID,1004.2,VALID,0,VALID,94.5218,VALID,0,VALID,24.7548,VALID,357,VALID,0.274609,
2009-10-05, 02:57:04,VALID,1004.2,VALID,0,VALID,94.5523,VALID,0,VALID,24.7937,VALID,357,VALID,0.232812,
2009-10-05, 02:58:04,VALID,1004.19,VALID,0,VALID,94.5752,VALID,0,VALID,24.8346,VALID,357,VALID,0.338672,
2009-10-05, 02:59:04,VALID,1004.19,VALID,0,VALID,94.5447,VALID,0,VALID,24.7919,VALID,357,VALID,0.303125,
2009-10-05, 03:00:04,VALID,1004.18,VALID,0,VALID,94.5981,VALID,0,VALID,24.7919,VALID,357,VALID,0.176563,
2009-10-05, 03:01:04,VALID,1004.18,VALID,0,VALID,94.5752,VALID,0,VALID,24.8113,VALID,357,VALID,0,
2009-10-05, 03:02:04,VALID,1004.13,VALID,0,VALID,94.5752,VALID,0,VALID,24.8132,VALID,357,VALID,0,
2009-10-05, 03:03:04,VALID,1004.14,VALID,0,VALID,94.5447,VALID,0,VALID,24.7937,VALID,357,VALID,0,
2009-10-05, 03:04:04,VALID,1004.15,VALID,0,VALID,94.5066,VALID,0,VALID,24.7743,VALID,357,VALID,0.258203,
2009-10-05, 03:05:04,VALID,1004.15,VALID,0,VALID,94.4989,VALID,0,VALID,24.7548,VALID,357,VALID,0.407422,
2009-10-05, 03:06:04,VALID,1004.13,VALID,0,VALID,94.5218,VALID,0,VALID,24.7956,VALID,5,VALID,0.397656,
2009-10-05, 03:07:04,VALID,1004.16,VALID,0,VALID,94.5142,VALID,0,VALID,24.7353,VALID,5,VALID,0.427734,
2009-10-05, 03:08:04,VALID,1004.22,VALID,0,VALID,94.4913,VALID,0,VALID,24.7567,VALID,5,VALID,0.321875,
2009-10-05, 03:09:04,VALID,1004.21,VALID,0,VALID,94.4684,VALID,0,VALID,24.7353,VALID,5,VALID,0.186719,
2009-10-05, 03:10:04,VALID,1004.2,VALID,0,VALID,94.4989,VALID,0,VALID,24.7353,VALID,5,VALID,0,
2009-10-05, 03:11:04,VALID,1004.19,VALID,0,VALID,94.5066,VALID,0,VALID,24.7548,VALID,5,VALID,0,
2009-10-05, 03:12:04,VALID,1004.17,VALID,0,VALID,94.5752,VALID,0,VALID,24.7335,VALID,5,VALID,0,
2009-10-05, 03:13:04,VALID,1004.21,VALID,0,VALID,94.5981,VALID,0,VALID,24.7743,VALID,5,VALID,0,
2009-10-05, 03:14:04,VALID,1004.2,VALID,0,VALID,94.6134,VALID,0,VALID,24.7743,VALID,5,VALID,0,
2009-10-05, 03:15:04,VALID,1004.19,VALID,0,VALID,94.6134,VALID,0,VALID,24.7743,VALID,5,VALID,0,
2009-10-05, 03:16:04,VALID,1004.18,VALID,0,VALID,94.5981,VALID,0,VALID,24.7529,VALID,5,VALID,0,
2009-10-05, 03:17:04,VALID,1004.17,VALID,0,VALID,94.5752,VALID,0,VALID,24.7548,VALID,5,VALID,0,
2009-10-05, 03:18:04,VALID,1004.21,VALID,0,VALID,94.5676,VALID,0,VALID,24.7743,VALID,5,VALID,0,
2009-10-05, 03:19:04,VALID,1004.21,VALID,0,VALID,94.5829,VALID,0,VALID,24.7548,VALID,5,VALID,0,
2009-10-05, 03:20:04,VALID,1004.22,VALID,0,VALID,94.56,VALID,0,VALID,24.7567,VALID,5,VALID,0,
2009-10-05, 03:21:04,VALID,1004.2,VALID,0,VALID,94.5295,VALID,0,VALID,24.7353,VALID,5,VALID,0,
2009-10-05, 03:22:04,VALID,1004.23,VALID,0,VALID,94.5295,VALID,0,VALID,24.7159,VALID,5,VALID,0,
2009-10-05, 03:23:04,VALID,1004.2,VALID,0,VALID,94.5447,VALID,0,VALID,24.7177,VALID,5,VALID,0,
2009-10-05, 03:24:04,VALID,1004.23,VALID,0,VALID,94.5371,VALID,0,VALID,24.6964,VALID,5,VALID,0,
2009-10-05, 03:25:04,VALID,1004.2,VALID,0,VALID,94.5371,VALID,0,VALID,24.6769,VALID,5,VALID,0,
2009-10-05, 03:26:04,VALID,1004.19,VALID,0,VALID,94.5066,VALID,0,VALID,24.6574,VALID,5,VALID,0,
2009-10-05, 03:27:04,VALID,1004.18,VALID,0,VALID,94.4989,VALID,0,VALID,24.6788,VALID,5,VALID,0,
2009-10-05, 03:28:04,VALID,1004.23,VALID,0,VALID,94.4913,VALID,0,VALID,24.6361,VALID,5,VALID,0,
2009-10-05, 03:29:04,VALID,1004.22,VALID,0,VALID,94.5218,VALID,0,VALID,24.6574,VALID,5,VALID,0,
2009-10-05, 03:30:04,VALID,1004.24,VALID,0,VALID,94.5447,VALID,0,VALID,24.6964,VALID,5,VALID,0,
2009-10-05, 03:31:04,VALID,1004.32,VALID,0,VALID,94.5905,VALID,0,VALID,24.6964,VALID,5,VALID,0,
2009-10-05, 03:32:04,VALID,1004.31,VALID,0,VALID,94.621,VALID,0,VALID,24.6945,VALID,5,VALID,0,
2009-10-05, 03:33:04,VALID,1004.34,VALID,0,VALID,94.6363,VALID,0,VALID,24.675,VALID,5,VALID,0,
2009-10-05, 03:34:04,VALID,1004.34,VALID,0,VALID,94.6439,VALID,0,VALID,24.6361,VALID,5,VALID,0,
2009-10-05, 03:35:04,VALID,1004.33,VALID,0,VALID,94.6057,VALID,0.100563,VALID,24.6166,VALID,5,VALID,0,
2009-10-05, 03:36:04,VALID,1004.35,VALID,0,VALID,94.5752,VALID,0.100563,VALID,24.5972,VALID,5,VALID,0,
2009-10-05, 03:37:04,VALID,1004.32,VALID,0,VALID,94.621,VALID,0,VALID,24.6166,VALID,5,VALID,0,
2009-10-05, 03:38:04,VALID,1004.3,VALID,0,VALID,94.6668,VALID,0.100563,VALID,24.6556,VALID,5,VALID,0,
2009-10-05, 03:39:04,VALID,1004.27,VALID,0,VALID,94.7125,VALID,0.100563,VALID,24.6945,VALID,5,VALID,0,
2009-10-05, 03:40:04,VALID,1004.29,VALID,0,VALID,94.7125,VALID,0.100563,VALID,24.6945,VALID,5,VALID,0,
2009-10-05, 03:41:04,VALID,1004.3,VALID,0,VALID,94.7049,VALID,0.100563,VALID,24.6945,VALID,5,VALID,0,
2009-10-05, 03:42:04,VALID,1004.32,VALID,0,VALID,94.6744,VALID,0,VALID,24.6964,VALID,5,VALID,0,
2009-10-05, 03:43:04,VALID,1004.35,VALID,0,VALID,94.6515,VALID,0,VALID,24.638,VALID,5,VALID,0,
2009-10-05, 03:44:04,VALID,1004.36,VALID,0,VALID,94.6668,VALID,0,VALID,24.638,VALID,5,VALID,0,
2009-10-05, 03:45:04,VALID,1004.4,VALID,0,VALID,94.6668,VALID,0,VALID,24.6574,VALID,5,VALID,0,
2009-10-05, 03:46:04,VALID,1004.41,VALID,0,VALID,94.6668,VALID,0,VALID,24.638,VALID,5,VALID,0,
2009-10-05, 03:47:04,VALID,1004.44,VALID,0,VALID,94.682,VALID,0,VALID,24.6574,VALID,5,VALID,0,
2009-10-05, 03:48:04,VALID,1004.46,VALID,0,VALID,94.682,VALID,0,VALID,24.638,VALID,5,VALID,0,
2009-10-05, 03:49:04,VALID,1004.48,VALID,0,VALID,94.6668,VALID,0,VALID,24.6166,VALID,5,VALID,0,
2009-10-05, 03:50:04,VALID,1004.46,VALID,0,VALID,94.682,VALID,0,VALID,24.6185,VALID,5,VALID,0,
2009-10-05, 03:51:04,VALID,1004.5,VALID,0,VALID,94.6744,VALID,0,VALID,24.638,VALID,5,VALID,0,